Location: Vihti�l�
(61.3833°N, 23.0667°E)
Time: 04:17:43
(UTC+00:00)

Cosmos 1844 Rocket - Pass Details

Date: 29 November 2020
Orbit: 824 x 845 km, 71.0° (Epoch: 19 January)

Event Time Altitude Azimuth Distance (km) Brightness Sun altitude
Rises 05:57:47 0° 237° (WSW) 3,395 5.6 -7.6°
Reaches altitude 10° 06:00:15 10° 241° (WSW) 2,465 4.9 -7.3°
Maximum altitude 06:05:52 61° 322° (NW) 961 2.8 -6.7°
Drops below altitude 10° 06:11:31 10° 43° (NE) 2,481 5.3 -6.2°
Sets 06:14:01 0° 47° (NE) 3,419 6.0 -5.9°
